Home > Time Zones > World Clock > Weather > Iran > Yazd > Past weeks

Flag for Iran Weather past 2 weeks in Yazd, Iran

Now
77 °F

Sunny.


Feels Like: 76 °F
Forecast: 71 / 92 °F
Wind: 5 mph from Northwest

Location: Yazd Airport

Current Time: May 26, 2015 at 8:28:32 AM

Latest Report: May 26, 2015 at 7:30 AM


Visibility: 10 mi

Pressure: 29.98 "Hg

Humidity: 13%

Dew point: 23 °F

Location of YazdLocation

Historic Weather in Yazd — Graph

°F

Yazd temperature yesterday

Maximum temperature yesterday: 97 °F (at 4:30 PM)
Minimum temperature yesterday: 75 °F (at 6:00 AM)
Average temperature yesterday: 88 °F

Past Weeks' High & Low Weather Summary

 TemperatureHumidityPressure
High99 °F (May 20, 3:30 PM)59% (May 11, 6:30 AM)30.18 "Hg (May 11, 6:30 AM)
Low63 °F (May 11, 6:30 AM)2% (May 20, 4:30 PM)29.86 "Hg (May 20, 6:00 PM)
Average84 °F13%30.02 "Hg
* Reported May 11 6:30 AM — May 26 7:00 AM, Yazd, Weather by CustomWeather, © 2015

Note: Actual official high and low records may vary slightly from our data, if they occured in-between our weather recording intervals... More about our weather records

Advertising

Yazd weather history for previous 24 hours

 ConditionsComfort  
Time TempWeatherWind HumidityBarometerVisibility
7:00 AM
Tue, May 26
75 °FPassing clouds.5 mph14%29.95 "HgN/A
6:30 AM73 °FPassing clouds.5 mph14%29.95 "HgN/A
6:00 AM73 °FPassing clouds.5 mph14%29.92 "HgN/A
5:20 AM73 °FPassing clouds.5 mph15%29.92 "HgN/A
4:30 AM77 °FPassing clouds.5 mph14%29.92 "HgN/A
3:30 AM81 °FClear.7 mph13%29.92 "Hg10 mi
2:30 AM82 °FPassing clouds.9 mph12%29.92 "HgN/A
1:30 AM82 °FPassing clouds.9 mph12%29.92 "HgN/A
12:30 AM82 °FPassing clouds.7 mph11%29.92 "HgN/A
12:00 AM84 °FPassing clouds.7 mph10%29.92 "HgN/A
11:30 PM
Mon, May 25
84 °FPassing clouds.7 mph10%29.92 "HgN/A
10:30 PM86 °FPassing clouds.No wind10%29.92 "HgN/A
10:00 PM88 °FPartly cloudy.No wind11%29.92 "HgN/A
9:30 PM90 °FPartly cloudy.5 mph9%29.92 "HgN/A
9:00 PM90 °FBroken clouds.5 mph9%29.89 "HgN/A
8:30 PM91 °FBroken clouds.5 mph8%29.89 "HgN/A
8:00 PM93 °FBroken clouds.2 mph7%29.89 "HgN/A
7:30 PM93 °FPartly sunny.9 mph8%29.89 "HgN/A
7:00 PM93 °FBroken clouds.7 mph8%29.89 "HgN/A
6:30 PM95 °FBroken clouds.12 mph7%29.89 "HgN/A
6:00 PM95 °FBroken clouds.9 mph7%29.89 "HgN/A
5:30 PM95 °FBroken clouds.9 mph7%29.89 "HgN/A
5:00 PM95 °FScattered clouds.5 mph7%29.89 "HgN/A
4:30 PM97 °FScattered clouds.7 mph7%29.89 "HgN/A
3:30 PM95 °FPassing clouds.12 mph7%29.92 "HgN/A
2:30 PM95 °FPassing clouds.5 mph7%29.92 "HgN/A
1:30 PM95 °FPassing clouds.7 mph8%29.95 "HgN/A
1:00 PM93 °FPassing clouds.7 mph8%29.95 "HgN/A
12:30 PM93 °FPassing clouds.9 mph8%29.98 "HgN/A
12:00 PM93 °FPassing clouds.5 mph8%29.98 "HgN/A
11:30 AM93 °FSunny.9 mph8%29.98 "Hg10 mi
11:00 AM91 °FSunny.9 mph10%29.98 "Hg10 mi
10:30 AM90 °FSunny.14 mph9%30.01 "Hg10 mi
10:00 AM90 °FSunny.16 mph11%30.01 "Hg10 mi
9:30 AM88 °FSunny.14 mph12%30.01 "Hg10 mi
9:00 AM84 °FSunny.7 mph13%30.01 "Hg10 mi
8:30 AM81 °FSunny.2 mph16%30.01 "Hg10 mi
8:00 AM81 °FSunny.2 mph15%29.98 "Hg10 mi
Weather by CustomWeather, © 2015

See weather overviewHow to use our weather pages